Home > Weather > Waco > Past weeks

Flag for USA Past Weather in Waco, Texas, USA — Yesterday and Last 2 Weeks

Now
73 °F

Sunny.


Feels Like: 75 °F
Forecast: 71 / 86 °F
Wind: 9 mph from Northwest

Location: Waco Regional Airport

Current Time: May 30, 2016 at 11:29:17 AM

Latest Report: May 30, 2016 at 10:51 AM


Visibility: 10 mi

Pressure: 30.00 "Hg

Humidity: 74%

Dew Point: 64 °F

Location of WacoLocation

Past Weather in Waco — Graph

°F

Waco Temperature Yesterday

Maximum temperature yesterday: 89 °F (at 2:51 PM)
Minimum temperature yesterday: 72 °F (at 5:51 AM)
Average temperature yesterday: 80 °F

High & Low Weather Summary for the Past Weeks

 TemperatureHumidityPressure
High90 °F (May 28, 4:51 PM)97% (May 17, 5:51 AM)30.14 "Hg (May 17, 5:51 AM)
Low57 °F (May 20, 12:51 AM)48% (May 29, 3:51 PM)29.69 "Hg (May 27, 2:51 AM)
Average73 °F78%29.94 "Hg
* Reported May 15 9:51 AM — May 30 9:51 AM, Waco, Weather by CustomWeather, © 2016

Note: Actual official high and low records may vary slightly from our data, if they occured in-between our weather recording intervals... More about our weather records

Advertising

Waco Weather History for the Previous 24 Hours

Scroll right to see more
 ConditionsComfort  
Time TempWeatherWind HumidityBarometerVisibility
9:51 AM
Mon, May 30
71 °FSunny.7 mph71%30.00 "Hg10 mi
8:51 AM74 °FSunny.16 mph57%29.98 "Hg10 mi
7:51 AM76 °FSunny.21 mph50%29.85 "Hg10 mi
6:51 AM72 °FPassing clouds.28 mph64%29.83 "Hg10 mi
5:51 AM69 °FRain. Partly cloudy.28 mph70%29.95 "Hg7 mi
4:51 AM69 °FThundershowers. Passing clouds.10 mph90%30.07 "Hg10 mi
3:51 AM74 °FThunderstorms. Passing clouds.9 mph88%30.03 "Hg9 mi
2:51 AM75 °FClear.9 mph82%29.98 "Hg10 mi
1:51 AM76 °FClear.9 mph82%30.00 "Hg10 mi
12:51 AM77 °FPassing clouds.13 mph79%30.00 "Hg10 mi
11:51 PM
Sun, May 29
77 °FPassing clouds.10 mph79%30.00 "Hg10 mi
10:51 PM79 °FClear.10 mph72%29.99 "Hg10 mi
9:51 PM80 °FClear.8 mph67%29.99 "Hg10 mi
8:51 PM82 °FSunny.9 mph65%29.98 "Hg10 mi
7:51 PM84 °FSunny.13 mph59%29.96 "Hg10 mi
6:51 PM87 °FSunny.13 mph53%29.94 "Hg10 mi
5:51 PM88 °FSunny.13 mph50%29.96 "Hg10 mi
4:51 PM89 °FPassing clouds.13 mph52%29.99 "Hg10 mi
3:51 PM89 °FPassing clouds.13 mph48%30.01 "Hg10 mi
2:51 PM89 °FPassing clouds.12 mph50%30.02 "Hg10 mi
1:51 PM87 °FSunny.12 mph55%30.03 "Hg10 mi
12:51 PM86 °FSunny.14 mph61%30.05 "Hg10 mi
11:51 AM84 °FSunny.10 mph65%30.05 "Hg10 mi
Weather by CustomWeather, © 2016

See weather overviewHow to use our weather pages